Regional Weather Roundup
Issued by NWS

Home | Current Version | Previous Version | Graphics & Text | Print | Product List | Glossary On
Versions: 1 2 3 4 5 6 7 8 9 10 11 12 13 14 15 16 17 18 19 20 21 22 23 24 25 26 27 28 29 30 31 32 33 34 35 36 37 38 39 40 41 42 43 44 45 46 47 48 49 50
000
ASUS44 KMEG 202210
RWRTN
TENNESSEE HOURLY STATE WEATHER ROUNDUP
NATIONAL WEATHER SERVICE MEMPHIS TN
500 PM CDT SUN APR 20 2014

TNZ002-004-019-021-049-052-054-088>092-202300-
WEST TENNESSEE

CITY           SKY/WX    TMP DP  RH WIND       PRES   REMARKS
MEMPHIS INTL   PTSUNNY   79  49  34 VRB5      30.10F
NWS MEMPHIS      N/A     82 N/A N/A MISG        N/A
JACKSON        SUNNY     80  47  31 S6        30.11F
DYERSBURG      SUNNY     79  45  29 SE3       30.11F
UNION CITY     SUNNY     75  46  35 S3        30.11S
PARIS          PTSUNNY   77  44  30 CALM      30.12F
LEXINGTON      SUNNY     79  39  24 CALM      30.11F
SAVANNAH       SUNNY     79  44  28 CALM      30.12F
$$

TNZ008-025-027-028-033-062-065-066-202300-
NORTH MIDDLE TENNESSEE

CITY           SKY/WX    TMP DP  RH WIND       PRES   REMARKS
NASHVILLE      MOSUNNY   79  40  24 E7        30.12F
DICKSON        MOSUNNY   79  37  22 CALM      30.12F
PORTLAND         N/A     75  43  31 N3        30.12F
CLARKSVILLE    PTSUNNY   78  43  28 E3        30.11F
SMYRNA         MOSUNNY   78  46  32 CALM      30.12F
MURFREESBORO   MOSUNNY   78  41  26 VRB3      30.12F
COOKEVILLE     SUNNY     81  43  26 W3        30.13F
LIVINGSTON     SUNNY     76  38  25 CALM      30.14F
GALLATIN       MOSUNNY   78  37  22 CALM      30.14F
CROSSVILLE     SUNNY     75  34  22 E3        30.16S
$$

TNZ061-075-076-078-094-096-097-202300-
SOUTH MIDDLE TENNESSEE

CITY           SKY/WX    TMP DP  RH WIND       PRES   REMARKS
LEWISBURG      MOSUNNY   80  46  30 CALM      30.12F
FAYETTEVILLE   MOSUNNY   76  43  30 NE7       30.14F
TULLAHOMA      SUNNY     75  43  31 W7        30.15S
WINCHESTER     SUNNY     77  45  31 CALM      30.13F
MCMINNVILLE    SUNNY     77  43  29 W5        30.14S
COLUMBIA       SUNNY     79  54  41 NE3       30.11F
SHELBYVILLE    MOSUNNY   79  45  29 CALM      30.15F
$$

TNZ017-018-042-046-047-202300-
NORTHEAST TENNESSEE

CITY           SKY/WX    TMP DP  RH WIND       PRES   REMARKS
TRI CITIES     MOSUNNY   75  27  17 CALM      30.16S
ELIZABETHTON   CLEAR     72  34  25 CALM      30.14S
$$

TNZ012-013-036-069-073-074-202300-
CENTRAL EAST TENNESSEE

CITY           SKY/WX    TMP DP  RH WIND       PRES   REMARKS
KNOXVILLE      SUNNY     75  40  28 NE7       30.12F
OAK RIDGE      SUNNY     76  38  25 VRB3      30.13F
$$

TNZ083-085-099-202300-
SOUTHEAST TENNESSEE

CITY           SKY/WX    TMP DP  RH WIND       PRES   REMARKS
CHATTANOOGA    PTSUNNY   79  37  22 NE7       30.12F
$$

SKY/WX REPORTED AS FAIR MEANS FEW OR NO CLOUDS BELOW
12 THOUSAND FEET.




USA.gov is the U.S. government's official web portal to all federal, state and local government web resources and services.